Flag for U.S.A. Weather past 2 weeks in Simi Valley, California, U.S.A.

Now
72 °F

Sunny.


Feels Like: 77 °F
Forecast: 57 / 87 °F
Wind: No wind

Location: Van Nuys Airport

Current Time: Oct 23, 2014 at 10:55:18 AM

Latest Report: Oct 23, 2014 at 9:51 AM


Visibility: 10 mi

Pressure: 29.99 "Hg

Humidity: 40%

Dew point: 46 °F

Location of Simi ValleyLocation

Historic Weather in Simi Valley — Graph

°F

Simi Valley temperature yesterday

Maximum temperature yesterday: 89 °F (at 2:51 PM)
Minimum temperature yesterday: 57 °F (at 5:51 AM)
Average temperature yesterday: 71 °F

Past Weeks' High & Low Weather Summary

 TemperatureHumidityPressure
High90 °F (Oct 13, 12:51 PM)97% (Oct 13, 8:51 AM)30.02 "Hg (Oct 13, 8:51 AM)
Low55 °F (Oct 21, 6:51 AM)11% (Oct 22, 2:51 PM)29.77 "Hg (Oct 8, 3:51 PM)
Average69 °F63%29.91 "Hg
* Reported Oct 8 9:51 AM — Oct 23 9:51 AM, Simi Valley, Weather by CustomWeather, © 2014

Note: Actual official high and low records may vary slightly from our data, if they occured in-between our weather recording intervals... More about our weather records

Advertising

Simi Valley weather history for previous 24 hours

 ConditionsComfort  
Time TempWeatherWind HumidityBarometerVisibility
9:51 AM
Oct 23
72 °FSunny.No wind40%29.99 "Hg10 mi
8:51 AM64 °FSunny.No wind56%29.98 "Hg10 mi
7:51 AM60 °FClear.3 mph65%29.96 "Hg10 mi
6:51 AM58 °FClear.No wind67%29.94 "Hg10 mi
5:51 AM58 °FClear.No wind67%29.93 "Hg10 mi
4:51 AM59 °FClear.No wind67%29.93 "Hg10 mi
3:51 AM61 °FClear.No wind62%29.91 "Hg10 mi
2:51 AM62 °FClear.No wind65%29.93 "Hg10 mi
1:51 AM62 °FClear.No wind65%29.95 "Hg10 mi
12:51 AM64 °FClear.No wind58%29.95 "Hg10 mi
11:51 PM
Oct 22
65 °FClear.No wind59%29.95 "Hg10 mi
10:51 PM69 °FClear.No wind51%29.95 "Hg10 mi
9:51 PM70 °FClear.No wind47%29.94 "Hg10 mi
8:51 PM72 °FClear.No wind44%29.93 "Hg10 mi
7:51 PM73 °FClear.No wind38%29.92 "Hg10 mi
6:51 PM78 °FSunny.No wind30%29.89 "Hg10 mi
5:51 PM81 °FSunny.6 mph24%29.87 "Hg10 mi
4:51 PM86 °FSunny.9 mph20%29.85 "Hg10 mi
3:51 PM89 °FSunny.10 mph11%29.85 "Hg10 mi
2:51 PM89 °FSunny.3 mph11%29.86 "Hg10 mi
1:51 PM87 °FSunny.No wind16%29.87 "Hg10 mi
12:51 PM83 °FSunny.7 mph22%29.90 "Hg10 mi
11:51 AM80 °FSunny.5 mph24%29.92 "Hg10 mi
10:51 AM76 °FSunny.3 mph31%29.93 "Hg10 mi
Weather by CustomWeather, © 2014

See weather overviewHow to use our weather pages